Location: Palmerston North
(40.3500°S, 175.6170°E)
Time: 23:37:58
(UTC+12:00)

ISS - Visible Passes

Search period start: 14 May 2021 00:00
Search period end: 24 May 2021 00:00
Orbit: 417 x 422 km, 51.6° (Epoch: 14 May)

Date Brightness Start Highest point End Pass type
(mag) Time Alt. Az. Time Alt. Az. Time Alt. Az.
19 May -0.5 06:27:26 10° NNE 06:29:22 14° NE 06:31:19 10° E visible
21 May -2.3 06:27:41 10° NNW 06:30:56 42° NE 06:34:13 10° ESE visible
22 May -1.4 05:40:45 10° N 05:43:35 24° NE 05:46:27 10° ESE visible
23 May -0.8 04:55:40 14° NE 04:56:17 15° NE 04:58:15 10° E visible
23 May -3.7 06:29:19 10° WNW 06:32:43 64° SW 06:36:10 10° SE visible
